Frederick, OK

5:53 PM CST on February 12, 2016 (GMT -0600)
Frederick Municipal

Weather History for KFDR - September, 2013

Change the Weather History Date:

Monday, September 9, 2013

  Actual Average (KLTS) Record (KLTS)
Temperature  
Mean Temperature 83 °F -  
Max Temperature 96 °F 87 °F 97 °F (2014)
Min Temperature 71 °F 65 °F 50 °F (2004)
Cooling Degree Days 18    
Growing Degree Days 33 (Base 50)    
Moisture  
Dew Point 59 °F    
Average Humidity 45    
Maximum Humidity 68    
Minimum Humidity 27    
Precipitation  
Precipitation 0.00 in - - ()
Sea Level Pressure  
Sea Level Pressure 29.87 in    
Wind  
Wind Speed 10 mph (South)    
Max Wind Speed 18 mph    
Max Gust Speed 26 mph    
Visibility 10 miles    
Events      
Averages and records for this station are not official NWS values.
T = Trace of Precipitation, MM = Missing Value Source: NWS Daily Summary

Daily Weather History Graph

Daily Weather History Graph

Search for Another Location

Airport or City:

Trip Planner

Search our weather history database for the weather conditions in past years. The results will help you decide how hot, cold, wet, or windy it might be!

Date:

Astronomy

Sep. 09, 2013 Rise Set
Actual Time 7:15 AM CDT 7:50 PM CDT
Civil Twilight 6:49 AM CDT 8:15 PM CDT
Nautical Twilight 6:19 AM CDT 8:45 PM CDT
Astronomical Twilight 5:49 AM CDT 9:16 PM CDT
Moon 11:24 AM CDT (9/9) 10:22 PM CDT (9/9)
Length of Visible Light 13h 26m
Length of Day
12h 35m
Waxing Crescent, 19% of the Moon is Illuminated
Sep 9
Waxing Crescent
Sep 12
First Quarter
Sep 19
Full
Sep 26
Last Quarter
Oct 4
New

Hourly Weather History & Observations

Time (CDT) Temp. Heat Index Dew Point Humidity Pressure Visibility Wind Dir Wind Speed Gust Speed Precip Events Conditions
12:53 AM 80.1 °F 80.7 °F 59.0 °F 48% 29.85 in 10.0 mi SSE 9.2 mph - N/A   Clear
1:53 AM 78.1 °F - 59.0 °F 52% 29.85 in 10.0 mi SSE 8.1 mph - N/A   Clear
2:53 AM 75.9 °F - 59.0 °F 56% 29.85 in 10.0 mi South 9.2 mph - N/A   Clear
3:53 AM 75.0 °F - 59.0 °F 57% 29.86 in 10.0 mi South 4.6 mph - N/A   Clear
4:53 AM 75.0 °F - 60.1 °F 60% 29.86 in 10.0 mi SSW 6.9 mph - N/A   Clear
5:53 AM 73.0 °F - 60.1 °F 64% 29.87 in 10.0 mi SSW 6.9 mph - N/A   Clear
6:53 AM 71.1 °F - 60.1 °F 68% 29.89 in 10.0 mi SSE 8.1 mph - N/A   Clear
7:53 AM 73.9 °F - 62.1 °F 66% 29.90 in 10.0 mi South 9.2 mph - N/A   Clear
8:53 AM 79.0 °F - 64.0 °F 60% 29.91 in 10.0 mi South 9.2 mph - N/A   Clear
9:53 AM 82.9 °F 84.0 °F 63.0 °F 51% 29.92 in 10.0 mi SW 11.5 mph - N/A   Clear
10:53 AM 87.1 °F 87.8 °F 63.0 °F 44% 29.92 in 10.0 mi South 9.2 mph - N/A   Clear
11:53 AM 89.1 °F 89.0 °F 61.0 °F 39% 29.91 in 10.0 mi South 12.7 mph 19.6 mph N/A   Clear
12:53 PM 93.0 °F 92.0 °F 57.9 °F 31% 29.90 in 10.0 mi SSE 18.4 mph 26.5 mph N/A   Clear
1:53 PM 93.0 °F 92.0 °F 57.9 °F 31% 29.88 in 10.0 mi SSW 16.1 mph 23.0 mph N/A   Partly Cloudy
2:53 PM 93.9 °F 92.9 °F 57.9 °F 30% 29.86 in 10.0 mi SSE 13.8 mph 26.5 mph N/A   Scattered Clouds
3:53 PM 95.0 °F 94.0 °F 57.9 °F 29% 29.84 in 10.0 mi South 16.1 mph 25.3 mph N/A   Partly Cloudy
4:53 PM 95.0 °F 93.7 °F 57.0 °F 28% 29.82 in 10.0 mi SE 17.3 mph 23.0 mph N/A   Scattered Clouds
5:53 PM 95.0 °F 93.4 °F 55.9 °F 27% 29.81 in 10.0 mi South 16.1 mph 23.0 mph N/A   Clear
6:53 PM 91.9 °F 90.3 °F 55.9 °F 30% 29.81 in 10.0 mi South 16.1 mph 23.0 mph N/A   Clear
7:53 PM 90.0 °F 88.1 °F 55.9 °F 31% 29.82 in 10.0 mi SSE 12.7 mph - N/A   Clear
8:53 PM 84.9 °F 83.7 °F 55.9 °F 37% 29.84 in 10.0 mi SE 9.2 mph - N/A   Clear
9:53 PM 82.9 °F 82.1 °F 55.9 °F 39% 29.86 in 10.0 mi SSE 10.4 mph - N/A   Clear
10:53 PM 81.0 °F 81.0 °F 57.0 °F 44% 29.87 in 10.0 mi SE 9.2 mph - N/A   Clear
11:53 PM 78.1 °F - 57.9 °F 50% 29.88 in 10.0 mi SE 6.9 mph - N/A   Clear